When you browse on this site, cookies collect data to enhance your experience and personalize the content and advertising you see.
Visit our Privacy Policy to learn more. By continuing to use the site, you agree to this use of cookies and data.
  • En España
  • Lista de países
  • Para 7 días
  • Temperatura del agua
  • Mapa Satelital
  • El tiempo en el mapa
  • Informadores
  • user-avatar
    Iniciar sesión

    Tiempo cada hora Akimovka

    Hoy, 22 Marzo, Viernes

    Tiempo Temperatura Precipitaciones Viento Presión Humedad
    00:00 -2°C° 0 mm 2 mps 751 mmHg 94%
    01:00 -2°C° 0 mm 2 mps 751 mmHg 94%
    02:00 -2°C° 0 mm 2 mps 751 mmHg 93%
    03:00 -2°C° 0 mm 2 mps 750 mmHg 93%
    04:00 -2°C° 0 mm 3 mps 750 mmHg 92%
    05:00 -2°C° 0 mm 3 mps 749 mmHg 92%
    06:00 -3°C° 0 mm 4 mps 748 mmHg 92%
    07:00 -2°C° 0.1 mm 4 mps 747 mmHg 89%
    08:00 -1°C° 0.1 mm 5 mps 746 mmHg 86%
    09:00 -1°C° 0.1 mm 6 mps 745 mmHg 83%
    10:00 -1°C° 0.9 mm 6 mps 744 mmHg 85%
    11:00 -1°C° 0.9 mm 7 mps 743 mmHg 87%
    12:00 -1°C° 0.9 mm 7 mps 742 mmHg 89%
    13:00 -1°C° 0.9 mm 7 mps 742 mmHg 89%
    14:00 -1°C° 0.9 mm 7 mps 741 mmHg 89%
    15:00 -1°C° 0.9 mm 8 mps 741 mmHg 90%
    16:00 -1°C° 0.5 mm 8 mps 742 mmHg 88%
    17:00 -2°C° 0.5 mm 8 mps 742 mmHg 86%
    18:00 -3°C° 0.5 mm 9 mps 742 mmHg 83%
    19:00 -4°C° 0.2 mm 8 mps 743 mmHg 84%
    20:00 -4°C° 0.2 mm 8 mps 743 mmHg 84%
    21:00 -4°C° 0.2 mm 8 mps 743 mmHg 85%
    22:00 -3°C° 0.2 mm 7 mps 744 mmHg 86%
    23:00 -3°C° 0.2 mm 7 mps 744 mmHg 87%

    Mañana, 23 Marzo, Sábado

    Tiempo Temperatura Precipitaciones Viento Presión Humedad
    00:00 -3°C° 0.2 mm 7 mps 744 mmHg 89%
    01:00 -3°C° 0.3 mm 7 mps 744 mmHg 90%
    02:00 -3°C° 0.3 mm 7 mps 745 mmHg 91%
    03:00 -3°C° 0.3 mm 7 mps 745 mmHg 92%
    04:00 -3°C° 0.1 mm 6 mps 746 mmHg 91%
    05:00 -3°C° 0.1 mm 6 mps 747 mmHg 91%
    06:00 -2°C° 0.1 mm 6 mps 747 mmHg 91%
    07:00 -3°C° 0 mm 6 mps 749 mmHg 91%
    08:00 -3°C° 0 mm 6 mps 750 mmHg 90%
    09:00 -3°C° 0 mm 6 mps 751 mmHg 90%
    10:00 -2°C° 0.1 mm 5 mps 751 mmHg 90%
    11:00 -2°C° 0.1 mm 5 mps 752 mmHg 89%
    12:00 -2°C° 0.1 mm 5 mps 752 mmHg 89%
    13:00 -1°C° 0 mm 4 mps 752 mmHg 89%
    14:00 -1°C° 0 mm 4 mps 752 mmHg 88%
    15:00 0°C° 0 mm 3 mps 753 mmHg 88%
    16:00 0°C° 0 mm 3 mps 753 mmHg 89%
    17:00 +1°C° 0 mm 2 mps 753 mmHg 89%
    18:00 +1°C° 0 mm 2 mps 753 mmHg 89%
    19:00 +1°C° 0 mm 1 mps 753 mmHg 89%
    20:00 +1°C° 0 mm 1 mps 753 mmHg 88%
    21:00 +1°C° 0 mm 1 mps 753 mmHg 87%
    22:00 +1°C° 0 mm 1 mps 753 mmHg 86%
    23:00 +1°C° 0 mm 1 mps 753 mmHg 86%

    Pasado mañana, 24 Marzo, Domingo

    Tiempo Temperatura Precipitaciones Viento Presión Humedad
    00:00 0°C° 0 mm 0 mps 752 mmHg 85%
    01:00 0°C° 0 mm 1 mps 752 mmHg 86%
    02:00 0°C° 0 mm 1 mps 751 mmHg 86%
    03:00 -3°C° 0 mm 2 mps 751 mmHg 87%
    04:00 -3°C° 0 mm 2 mps 751 mmHg 88%
    05:00 -3°C° 0 mm 2 mps 750 mmHg 88%
    06:00 -4°C° 0 mm 3 mps 749 mmHg 88%
    07:00 -4°C° 0 mm 3 mps 749 mmHg 87%
    08:00 -3°C° 0 mm 4 mps 749 mmHg 86%
    09:00 -2°C° 0 mm 5 mps 748 mmHg 85%
    10:00 -2°C° 0.3 mm 5 mps 748 mmHg 87%
    11:00 -2°C° 0.3 mm 5 mps 747 mmHg 89%
    12:00 -3°C° 0.3 mm 6 mps 746 mmHg 92%
    13:00 -1°C° 0.1 mm 5 mps 746 mmHg 92%
    14:00 -1°C° 0.1 mm 5 mps 746 mmHg 92%
    15:00 -1°C° 0.1 mm 5 mps 745 mmHg 92%
    16:00 0°C° 0 mm 4 mps 745 mmHg 92%
    17:00 0°C° 0 mm 4 mps 745 mmHg 93%
    18:00 +1°C° 0 mm 3 mps 744 mmHg 93%
    19:00 0°C° 0.1 mm 3 mps 744 mmHg 92%
    20:00 0°C° 0.1 mm 3 mps 744 mmHg 91%
    21:00 0°C° 0.1 mm 3 mps 744 mmHg 89%
    22:00 -1°C° 0 mm 3 mps 744 mmHg 89%
    23:00 -1°C° 0 mm 3 mps 744 mmHg 89%

    25 Marzo, Lunes

    Tiempo Temperatura Precipitaciones Viento Presión Humedad
    00:00 -2°C° 0 mm 3 mps 744 mmHg 88%
    01:00 -2°C° 0 mm 3 mps 744 mmHg 89%
    02:00 -4°C° 0 mm 3 mps 744 mmHg 89%
    03:00 -4°C° 0 mm 3 mps 744 mmHg 89%
    04:00 -4°C° 0 mm 3 mps 744 mmHg 90%
    05:00 -5°C° 0 mm 3 mps 744 mmHg 90%
    06:00 -5°C° 0 mm 3 mps 744 mmHg 91%
    07:00 -4°C° 0 mm 4 mps 745 mmHg 89%
    08:00 -4°C° 0 mm 4 mps 745 mmHg 87%
    09:00 -3°C° 0 mm 4 mps 745 mmHg 85%
    10:00 -2°C° 0 mm 4 mps 745 mmHg 82%
    11:00 -2°C° 0 mm 4 mps 745 mmHg 79%
    12:00 -1°C° 0 mm 5 mps 745 mmHg 76%
    13:00 -1°C° 0.1 mm 5 mps 745 mmHg 74%
    14:00 -1°C° 0.1 mm 5 mps 745 mmHg 72%
    15:00 -1°C° 0.1 mm 5 mps 745 mmHg 70%
    16:00 -1°C° 0 mm 4 mps 745 mmHg 72%
    17:00 -1°C° 0 mm 4 mps 745 mmHg 73%
    18:00 -1°C° 0 mm 3 mps 746 mmHg 74%
    19:00 -1°C° 0 mm 3 mps 746 mmHg 76%
    20:00 -2°C° 0 mm 2 mps 746 mmHg 78%
    21:00 -3°C° 0 mm 2 mps 746 mmHg 80%
    22:00 -3°C° 0 mm 2 mps 746 mmHg 80%
    23:00 -4°C° 0 mm 3 mps 746 mmHg 80%

    26 Marzo, Martes

    Tiempo Temperatura Precipitaciones Viento Presión Humedad
    00:00 -4°C° 0 mm 3 mps 746 mmHg 79%
    01:00 -2°C° 0 mm 3 mps 746 mmHg 80%
    02:00 -3°C° 0 mm 4 mps 746 mmHg 81%
    03:00 -3°C° 0 mm 4 mps 746 mmHg 82%
    04:00 -3°C° 0 mm 4 mps 746 mmHg 81%
    05:00 -3°C° 0 mm 4 mps 746 mmHg 81%
    06:00 -3°C° 0 mm 4 mps 746 mmHg 81%
    07:00 -2°C° 0 mm 5 mps 746 mmHg 76%
    08:00 -2°C° 0 mm 5 mps 746 mmHg 72%
    09:00 -2°C° 0 mm 6 mps 747 mmHg 67%
    10:00 -1°C° 0 mm 6 mps 747 mmHg 63%
    11:00 +1°C° 0 mm 6 mps 747 mmHg 59%
    12:00 +2°C° 0 mm 6 mps 747 mmHg 54%
    13:00 +2°C° 0.1 mm 5 mps 747 mmHg 57%
    14:00 +2°C° 0.1 mm 5 mps 747 mmHg 61%
    15:00 +3°C° 0.1 mm 4 mps 747 mmHg 64%
    16:00 +2°C° 0.3 mm 3 mps 747 mmHg 72%
    17:00 +2°C° 0.3 mm 2 mps 747 mmHg 80%
    18:00 -1°C° 0.3 mm 2 mps 746 mmHg 88%
    19:00 +1°C° 0 mm 1 mps 747 mmHg 88%
    20:00 0°C° 0 mm 1 mps 747 mmHg 88%
    21:00 0°C° 0 mm 1 mps 747 mmHg 88%
    22:00 -1°C° 0 mm 1 mps 746 mmHg 86%
    23:00 -3°C° 0 mm 2 mps 746 mmHg 83%

    27 Marzo, Miércoles

    Tiempo Temperatura Precipitaciones Viento Presión Humedad
    00:00 -3°C° 0 mm 2 mps 746 mmHg 81%
    01:00 -2°C° 0 mm 3 mps 745 mmHg 78%
    02:00 -3°C° 0 mm 4 mps 744 mmHg 75%
    03:00 -3°C° 0 mm 4 mps 744 mmHg 72%
    04:00 -3°C° 0.1 mm 4 mps 743 mmHg 76%
    05:00 -3°C° 0.1 mm 4 mps 743 mmHg 79%
    06:00 -3°C° 0.1 mm 4 mps 743 mmHg 83%
    07:00 -3°C° 0.9 mm 4 mps 742 mmHg 86%
    08:00 -3°C° 0.9 mm 4 mps 742 mmHg 89%
    09:00 -3°C° 0.9 mm 4 mps 742 mmHg 92%
    10:00 -2°C° 0.2 mm 4 mps 742 mmHg 86%
    11:00 -2°C° 0.2 mm 4 mps 742 mmHg 81%
    12:00 -1°C° 0.2 mm 4 mps 742 mmHg 75%
    13:00 -1°C° 0.2 mm 4 mps 743 mmHg 72%
    14:00 -1°C° 0.2 mm 5 mps 743 mmHg 68%
    15:00 -1°C° 0.2 mm 5 mps 743 mmHg 65%
    16:00 -1°C° 0.1 mm 5 mps 744 mmHg 67%
    17:00 -1°C° 0.1 mm 4 mps 745 mmHg 69%
    18:00 -2°C° 0.1 mm 4 mps 745 mmHg 71%
    19:00 -2°C° 0 mm 5 mps 746 mmHg 76%
    20:00 -4°C° 0 mm 5 mps 747 mmHg 80%
    21:00 -4°C° 0 mm 5 mps 748 mmHg 84%
    22:00 -4°C° 0 mm 5 mps 749 mmHg 85%
    23:00 -5°C° 0 mm 5 mps 749 mmHg 86%
    Mostrar más